| time (UTC) | temp F | wind direction | speed knots | gust knots | rain 1hr in | rain 24hr in | rain mn in | humidity % | barometer mb |
| 20260507001404 | 83 | 247 | 2.6 | 2.6 | 0.00 | 0.00 | 0.00 | 37 | 1086.6 |
| 20260506235504 | 82 | 232 | 1.7 | 1.7 | 0.00 | 0.00 | 0.00 | 38 | 1086.8 |
| 20260506235404 | 82 | 247 | 1.7 | 1.7 | 0.00 | 0.00 | 0.00 | 37 | 1086.7 |
| 20260506235306 | 82 | 236 | 1.7 | 2.6 | 0.00 | 0.00 | 0.00 | 37 | 1086.7 |
| 20260506233406 | 81 | 183 | 1.7 | 1.7 | 0.00 | 0.00 | 0.00 | 39 | 1086.9 |
| 20260506231503 | 83 | 202 | 0.9 | 0.9 | 0.00 | 0.00 | 0.00 | 39 | 1087.0 |
| 20260506225506 | 82 | 202 | 0.0 | 0.9 | 0.00 | 0.00 | 0.00 | 41 | 1087.4 |
| 20260506224504 | 80 | 202 | 0.9 | 0.9 | 0.00 | 0.00 | 0.00 | 41 | 1087.6 |
| 20260506224402 | 80 | 202 | 0.9 | 0.9 | 0.00 | 0.00 | 0.00 | 41 | 1087.6 |
| 20260506222404 | 79 | 202 | 0.9 | 1.7 | 0.00 | 0.00 | 0.00 | 43 | 1087.8 |
| 20260506221502 | 78 | 211 | 0.9 | 0.9 | 0.00 | 0.00 | 0.00 | 43 | 1087.9 |
| 20260506220503 | 78 | 157 | 0.0 | 0.9 | 0.00 | 0.00 | 0.00 | 44 | 1088.1 |
| 20260506220402 | 78 | 157 | 1.7 | 1.7 | 0.00 | 0.00 | 0.00 | 44 | 1088.1 |
| 20260506215404 | 78 | 157 | 1.7 | 2.6 | 0.00 | 0.00 | 0.00 | 44 | 1088.2 |
| 20260506215305 | 78 | 157 | 0.9 | 1.7 | 0.00 | 0.00 | 0.00 | 44 | 1088.3 |
| 20260506214401 | 78 | 157 | 1.7 | 2.6 | 0.00 | 0.00 | 0.00 | 43 | 1088.3 |
| 20260506212503 | 78 | 180 | 0.9 | 1.7 | 0.00 | 0.00 | 0.00 | 45 | 1088.6 |
| 20260506212403 | 78 | 180 | 1.7 | 1.7 | 0.00 | 0.00 | 0.00 | 44 | 1088.6 |
| 20260506211503 | 77 | 232 | 0.9 | 2.6 | 0.00 | 0.00 | 0.00 | 46 | 1088.8 |
| 20260506210504 | 75 | 157 | 0.9 | 1.7 | 0.00 | 0.00 | 0.00 | 47 | 1088.9 |
| 20260506204604 | 74 | 221 | 1.7 | 3.5 | 0.00 | 0.00 | 0.00 | 48 | 1088.9 |
| 20260506203601 | 74 | 250 | 2.6 | 5.2 | 0.00 | 0.00 | 0.00 | 48 | 1089.2 |
| 20260506202604 | 74 | 204 | 0.9 | 2.6 | 0.00 | 0.00 | 0.00 | 48 | 1089.3 |
| 20260506200603 | 72 | 247 | 2.6 | 3.5 | 0.00 | 0.00 | 0.00 | 49 | 1089.6 |
| 20260506195702 | 72 | 244 | 2.6 | 4.3 | 0.00 | 0.00 | 0.00 | 50 | 1089.7 |
| 20260506195603 | 72 | 208 | 0.9 | 1.7 | 0.00 | 0.00 | 0.00 | 50 | 1089.8 |
| 20260506194701 | 71 | 249 | 3.5 | 5.2 | 0.00 | 0.00 | 0.00 | 51 | 1089.7 |
| 20260506194602 | 71 | 198 | 1.7 | 4.3 | 0.00 | 0.00 | 0.00 | 50 | 1089.7 |
| 20260506194502 | 71 | 207 | 2.6 | 5.2 | 0.00 | 0.00 | 0.00 | 51 | 1089.8 |
| 20260506193505 | 70 | 292 | 5.2 | 6.1 | 0.00 | 0.00 | 0.00 | 50 | 1090.0 |
| 20260506193404 | 70 | 254 | 2.6 | 5.2 | 0.00 | 0.00 | 0.00 | 49 | 1090.1 |
| 20260506192404 | 72 | 223 | 0.9 | 2.6 | 0.00 | 0.00 | 0.00 | 51 | 1090.1 |
| 20260506191503 | 72 | 184 | 0.0 | 0.9 | 0.00 | 0.00 | 0.00 | 51 | 1090.3 |
| 20260506190503 | 71 | 219 | 0.0 | 0.0 | 0.00 | 0.00 | 0.00 | 52 | 1090.3 |
| 20260506184605 | 70 | 202 | 0.0 | 0.0 | 0.00 | 0.00 | 0.00 | 55 | 1090.6 |
| 20260506183604 | 69 | 205 | 0.0 | 0.0 | 0.00 | 0.00 | 0.00 | 56 | 1090.7 |
| 20260506182702 | 69 | 222 | 1.7 | 2.6 | 0.00 | 0.00 | 0.00 | 56 | 1090.9 |
| 20260506180801 | 68 | 202 | 0.0 | 0.0 | 0.00 | 0.00 | 0.00 | 58 | 1091.0 |
| 20260506175803 | 68 | 187 | 0.9 | 3.5 | 0.00 | 0.00 | 0.00 | 57 | 1091.1 |
| 20260506174801 | 69 | 172 | 1.7 | 2.6 | 0.00 | 0.00 | 0.00 | 57 | 1091.0 |
| 20260506174705 | 69 | 202 | 0.0 | 0.9 | 0.00 | 0.00 | 0.00 | 57 | 1090.9 |
| 20260506173803 | 67 | 202 | 0.0 | 0.0 | 0.00 | 0.00 | 0.00 | 59 | 1091.1 |
| 20260506172803 | 66 | 157 | 0.0 | 0.9 | 0.00 | 0.00 | 0.00 | 63 | 1091.1 |
| 20260506172703 | 66 | 211 | 0.9 | 1.7 | 0.00 | 0.00 | 0.00 | 63 | 1091.1 |
| 20260506171703 | 64 | 214 | 0.0 | 0.0 | 0.00 | 0.00 | 0.00 | 64 | 1091.2 |
| 20260506170704 | 62 | 225 | 0.9 | 0.9 | 0.00 | 0.00 | 0.00 | 65 | 1091.5 |
| 20260506165702 | 64 | 225 | 1.7 | 1.7 | 0.00 | 0.00 | 0.00 | 65 | 1091.4 |
| 20260506164704 | 62 | 157 | 1.7 | 1.7 | 0.00 | 0.00 | 0.00 | 66 | 1091.4 |
| 20260506163704 | 62 | 214 | 1.7 | 1.7 | 0.00 | 0.00 | 0.00 | 68 | 1091.4 |
| 20260506162705 | 61 | 202 | 1.7 | 1.7 | 0.00 | 0.00 | 0.00 | 70 | 1091.6 |
| 20260506161702 | 60 | 202 | 0.0 | 0.0 | 0.00 | 0.00 | 0.00 | 73 | 1091.8 |
| 20260506161604 | 60 | 202 | 0.0 | 0.0 | 0.00 | 0.00 | 0.00 | 73 | 1091.8 |
| 20260506155704 | 0 | 0 | 0.0 | 0.0 | 0.00 | 0.00 | 0.00 | 100 | |
| 20260506154704 | 0 | 0 | 0.0 | 0.0 | 0.00 | 0.00 | 0.00 | 100 | |
| 20260506152801 | 0 | 0 | 0.0 | 0.0 | 0.00 | 0.00 | 0.00 | 100 | |
| 20260506151804 | 0 | 0 | 0.0 | 0.0 | 0.00 | 0.00 | 0.00 | 100 | |
| 20260506150804 | 0 | 0 | 0.0 | 0.0 | 0.00 | 0.00 | 0.00 | 100 | |
| 20260506150703 | 0 | 0 | 0.0 | 0.0 | 0.00 | 0.00 | 0.00 | 100 | |
| 20260506145703 | 0 | 0 | 0.0 | 0.0 | 0.00 | 0.00 | 0.00 | 100 | |
| 20260506144801 | 0 | 0 | 0.0 | 0.0 | 0.00 | 0.00 | 0.00 | 100 | |
| 20260506144704 | 0 | 0 | 0.0 | 0.0 | 0.00 | 0.00 | 0.00 | 100 | |
| 20260506143703 | 0 | 0 | 0.0 | 0.0 | 0.00 | 0.00 | 0.00 | 100 | |
| 20260506143601 | 0 | 0 | 0.0 | 0.0 | 0.00 | 0.00 | 0.00 | 100 | |
| 20260506142602 | 0 | 0 | 0.0 | 0.0 | 0.00 | 0.00 | 0.00 | 100 | |
| 20260506141605 | 0 | 0 | 0.0 | 0.0 | 0.00 | 0.00 | 0.00 | 100 | |
| 20260506140602 | 0 | 0 | 0.0 | 0.0 | 0.00 | 0.00 | 0.00 | 100 | |
| 20260506135603 | 0 | 0 | 0.0 | 0.0 | 0.00 | 0.00 | 0.00 | 100 | |
| 20260506135505 | 0 | 0 | 0.0 | 0.0 | 0.00 | 0.00 | 0.00 | 100 | |
| 20260506134602 | 0 | 0 | 0.0 | 0.0 | 0.00 | 0.00 | 0.00 | 100 | |
| 20260506132702 | 0 | 0 | 0.0 | 0.0 | 0.00 | 0.00 | 0.00 | 100 | |
| 20260506132603 | 0 | 0 | 0.0 | 0.0 | 0.00 | 0.00 | 0.00 | 100 | |
| 20260506131703 | 0 | 0 | 0.0 | 0.0 | 0.00 | 0.00 | 0.00 | 100 | |
| 20260506130702 | 0 | 0 | 0.0 | 0.0 | 0.00 | 0.00 | 0.00 | 100 | |
| 20260506125703 | 0 | 0 | 0.0 | 0.0 | 0.00 | 0.00 | 0.00 | 100 | |
| 20260506125604 | 0 | 0 | 0.0 | 0.0 | 0.00 | 0.00 | 0.00 | 100 | |
| 20260506124703 | 0 | 0 | 0.0 | 0.0 | 0.00 | 0.00 | 0.00 | 100 | |
| 20260506123704 | 0 | 0 | 0.0 | 0.0 | 0.00 | 0.00 | 0.00 | 100 | |
| 20260506121801 | 0 | 0 | 0.0 | 0.0 | 0.00 | 0.00 | 0.00 | 100 | |
| 20260506120805 | 0 | 0 | 0.0 | 0.0 | 0.00 | 0.00 | 0.00 | 100 | |
| 20260506114903 | 46 | 67 | 0.0 | 0.0 | 0.00 | 0.00 | 0.00 | 91 | 1090.0 |
| 20260506114803 | 46 | 67 | 0.0 | 0.0 | 0.00 | 0.00 | 0.00 | 91 | 1090.0 |
| 20260506113819 | 46 | 67 | 0.0 | 0.0 | 0.00 | 0.00 | 0.00 | 91 | 1089.8 |
| 20260506113705 | 46 | 67 | 0.0 | 0.0 | 0.00 | 0.00 | 0.00 | 91 | 1089.7 |
| 20260506112805 | 46 | 67 | 0.0 | 0.0 | 0.00 | 0.00 | 0.00 | 91 | 1089.9 |
| 20260506110904 | 0 | 0 | 0.0 | 0.0 | 0.00 | 0.00 | 0.00 | 100 | |
| 20260506105905 | 0 | 0 | 0.0 | 0.0 | 0.00 | 0.00 | 0.00 | 100 | |
| 20260506104905 | 0 | 0 | 0.0 | 0.0 | 0.00 | 0.00 | 0.00 | 100 | |
| 20260506104806 | 0 | 0 | 0.0 | 0.0 | 0.00 | 0.00 | 0.00 | 100 | |
| 20260506103903 | 0 | 0 | 0.0 | 0.0 | 0.00 | 0.00 | 0.00 | 100 | |
| 20260506102905 | 0 | 0 | 0.0 | 0.0 | 0.00 | 0.00 | 0.00 | 100 | |
| 20260506101905 | 0 | 0 | 0.0 | 0.0 | 0.00 | 0.00 | 0.00 | 100 | |
| 20260506100905 | 0 | 0 | 0.0 | 0.0 | 0.00 | 0.00 | 0.00 | 100 | |
| 20260506095903 | 0 | 0 | 0.0 | 0.0 | 0.00 | 0.00 | 0.00 | 100 | |
| 20260506094904 | 0 | 0 | 0.0 | 0.0 | 0.00 | 0.00 | 0.00 | 100 | |
| 20260506093904 | 0 | 0 | 0.0 | 0.0 | 0.00 | 0.00 | 0.00 | 100 | |
| 20260506092903 | 0 | 0 | 0.0 | 0.0 | 0.00 | 0.00 | 0.00 | 100 | |
| 20260506091902 | 0 | 0 | 0.0 | 0.0 | 0.00 | 0.00 | 0.00 | 100 | |
| 20260506091804 | 0 | 0 | 0.0 | 0.0 | 0.00 | 0.00 | 0.00 | 100 | |
| 20260506090803 | 0 | 0 | 0.0 | 0.0 | 0.00 | 0.00 | 0.00 | 100 | |
| 20260506085803 | 0 | 0 | 0.0 | 0.0 | 0.00 | 0.00 | 0.00 | 100 | |
| 20260506083802 | 0 | 0 | 0.0 | 0.0 | 0.00 | 0.00 | 0.00 | 100 | |
| 20260506081904 | 0 | 0 | 0.0 | 0.0 | 0.00 | 0.00 | 0.00 | 100 | |
| 20260506081804 | 0 | 0 | 0.0 | 0.0 | 0.00 | 0.00 | 0.00 | 100 | |
| 20260506080805 | 0 | 0 | 0.0 | 0.0 | 0.00 | 0.00 | 0.00 | 100 | |
| 20260506071824 | 0 | 0 | 0.0 | 0.0 | 0.00 | 0.00 | 0.00 | 100 | |
| 20260506071723 | 0 | 0 | 0.0 | 0.0 | 0.00 | 0.00 | 0.00 | 100 | |
| 20260506070725 | 0 | 0 | 0.0 | 0.0 | 0.00 | 0.00 | 0.00 | 100 | |
| 20260506061817 | 0 | 0 | 0.0 | 0.0 | 0.00 | 0.00 | 0.00 | 100 | |
| 20260506060818 | 0 | 0 | 0.0 | 0.0 | 0.00 | 0.00 | 0.00 | 100 | |
| 20260506050718 | 0 | 0 | 0.0 | 0.0 | 0.00 | 0.00 | 0.00 | 100 | |
| 20260506044818 | 0 | 0 | 0.0 | 0.0 | 0.00 | 0.00 | 0.00 | 100 | |
| 20260506043818 | 0 | 0 | 0.0 | 0.0 | 0.00 | 0.00 | 0.00 | 100 | |
| 20260506042818 | 0 | 0 | 0.0 | 0.0 | 0.00 | 0.00 | 0.00 | 100 | |
| 20260506042718 | 0 | 0 | 0.0 | 0.0 | 0.00 | 0.00 | 0.00 | 100 | |
| 20260506041720 | 0 | 0 | 0.0 | 0.0 | 0.00 | 0.00 | 0.00 | 100 | |
| 20260506040817 | 0 | 0 | 0.0 | 0.0 | 0.00 | 0.00 | 0.00 | 100 | |
| 20260506035819 | 0 | 0 | 0.0 | 0.0 | 0.00 | 0.00 | 0.00 | 100 | |
| 20260506034918 | 58 | 270 | 0.9 | 0.9 | 0.00 | 0.00 | 0.00 | 66 | 1086.9 |
| 20260506033918 | 59 | 270 | 2.6 | 2.6 | 0.00 | 0.00 | 0.00 | 66 | 1086.9 |
| 20260506031919 | 0 | 0 | 0.0 | 0.0 | 0.00 | 0.00 | 0.00 | 100 | |
| 20260506031018 | 60 | 22 | 1.7 | 1.7 | 0.00 | 0.00 | 0.00 | 63 | 1086.5 |
| 20260506025018 | 0 | 0 | 0.0 | 0.0 | 0.00 | 0.00 | 0.00 | 100 | |
| 20260506024017 | 0 | 0 | 0.0 | 0.0 | 0.00 | 0.00 | 0.00 | 100 | |
| 20260506023918 | 0 | 0 | 0.0 | 0.0 | 0.00 | 0.00 | 0.00 | 100 | |
| 20260506023819 | 0 | 0 | 0.0 | 0.0 | 0.00 | 0.00 | 0.00 | 100 | |
| 20260506022817 | 0 | 0 | 0.0 | 0.0 | 0.00 | 0.00 | 0.00 | 100 | |
| 20260506020918 | 0 | 0 | 0.0 | 0.0 | 0.00 | 0.00 | 0.00 | 100 | |
| 20260506020819 | 0 | 0 | 0.0 | 0.0 | 0.00 | 0.00 | 0.00 | 100 | |
| 20260506015719 | 0 | 0 | 0.0 | 0.0 | 0.00 | 0.00 | 0.00 | 100 | |
| 20260506014617 | 64 | 247 | 1.7 | 1.7 | 0.00 | 0.00 | 0.00 | 59 | 1085.6 |
| 20260506014518 | 64 | 247 | 1.7 | 1.7 | 0.00 | 0.00 | 0.00 | 59 | 1085.6 |
| 20260506013517 | 63 | 292 | 0.9 | 0.9 | 0.00 | 0.00 | 0.00 | 59 | 1085.8 |
| 20260506013416 | 63 | 292 | 0.9 | 0.9 | 0.00 | 0.00 | 0.00 | 59 | 1085.8 |
| 20260506013319 | 63 | 292 | 0.9 | 0.9 | 0.00 | 0.00 | 0.00 | 59 | 1085.8 |
| 20260506012318 | 63 | 247 | 0.9 | 0.9 | 0.00 | 0.00 | 0.00 | 59 | 1085.8 |
| 20260506011319 | 63 | 292 | 0.0 | 0.9 | 0.00 | 0.00 | 0.00 | 58 | 1085.8 |
| 20260506010319 | 64 | 25 | 0.9 | 1.7 | 0.00 | 0.00 | 0.00 | 58 | 1085.8 |
| 20260506005318 | 0 | 0 | 0.0 | 0.0 | 0.00 | 0.00 | 0.00 | 100 | |
| 20260506004317 | 64 | 247 | 0.9 | 0.9 | 0.00 | 0.00 | 0.00 | 57 | 1085.8 |
| 20260506004219 | 64 | 247 | 0.9 | 0.9 | 0.00 | 0.00 | 0.00 | 57 | 1085.8 |
| 20260506004117 | 64 | 247 | 1.7 | 1.7 | 0.00 | 0.00 | 0.00 | 57 | 1085.7 |
| 20260506003117 | 0 | 0 | 0.0 | 0.0 | 0.00 | 0.00 | 0.00 | 100 | |
| 20260506003018 | 0 | 0 | 0.0 | 0.0 | 0.00 | 0.00 | 0.00 | 100 | |
| 20260506002018 | 64 | 292 | 0.9 | 1.7 | 0.00 | 0.00 | 0.00 | 56 | 1085.6 |